owner,sensor,date,latitude,longitude,vertical_datum,wind_speed,wind_to_direction,wind_speed_of_gust,qcFlag 
COMPS,ioos:station:USF.COMPS:BGC:1,2015-05-01T00:00:00Z,26.4040,-81.8810,10.0,3.84,318.89,5.09,'1111122,1111122,1111122' 
COMPS,ioos:station:USF.COMPS:BGC:1,2015-05-01T00:06:00Z,26.4040,-81.8810,10.0,3.64,316.23,5.58,'1111122,1111122,1111122' 
COMPS,ioos:station:USF.COMPS:BGC:1,2015-05-01T00:12:00Z,26.4040,-81.8810,10.0,4.55,315.42,5.97,'1111122,1111122,1111122' 
COMPS,ioos:station:USF.COMPS:BGC:1,2015-05-01T00:18:00Z,26.4040,-81.8810,10.0,3.66,308.5,5.78,'1111122,1111122,1111122' 
COMPS,ioos:station:USF.COMPS:BGC:1,2015-05-01T00:24:00Z,26.4040,-81.8810,10.0,3.27,302.92,5.09,'1111122,1111122,1111122' 
COMPS,ioos:station:USF.COMPS:BGC:1,2015-05-01T00:30:00Z,26.4040,-81.8810,10.0,3.51,294.84,5.39,'1111122,1111122,1111122' 
COMPS,ioos:station:USF.COMPS:BGC:1,2015-05-01T00:36:00Z,26.4040,-81.8810,10.0,3.34,298.35,5.58,'1111122,1111122,1111122' 
COMPS,ioos:station:USF.COMPS:BGC:1,2015-05-01T00:42:00Z,26.4040,-81.8810,10.0,3.82,302.11,6.27,'1111122,1111122,1111122' 
COMPS,ioos:station:USF.COMPS:BGC:1,2015-05-01T00:48:00Z,26.4040,-81.8810,10.0,3.93,316.55,7.35,'1111122,1111122,1111122' 
COMPS,ioos:station:USF.COMPS:BGC:1,2015-05-01T00:54:00Z,26.4040,-81.8810,10.0,3.38,298.99,4.41,'1111122,1111122,1111122' 
COMPS,ioos:station:USF.COMPS:BGC:1,2015-05-01T01:00:00Z,26.4040,-81.8810,10.0,3.91,315.05,7.74,'1111122,1111122,1111122' 
COMPS,ioos:station:USF.COMPS:BGC:1,2015-05-01T01:06:00Z,26.4040,-81.8810,10.0,3.32,312.21,6.86,'1111122,1111122,1111122' 
COMPS,ioos:station:USF.COMPS:BGC:1,2015-05-01T01:12:00Z,26.4040,-81.8810,10.0,3.14,297.87,4.11,'1111122,1111122,1111122' 
COMPS,ioos:station:USF.COMPS:BGC:1,2015-05-01T01:18:00Z,26.4040,-81.8810,10.0,3.16,306.47,4.7,'1111122,1111122,1111122' 
COMPS,ioos:station:USF.COMPS:BGC:1,2015-05-01T01:24:00Z,26.4040,-81.8810,10.0,3.73,310.54,6.07,'1111122,1111122,1111122' 
COMPS,ioos:station:USF.COMPS:BGC:1,2015-05-01T01:30:00Z,26.4040,-81.8810,10.0,2.88,306.29,4.7,'1111122,1111122,1111122' 
COMPS,ioos:station:USF.COMPS:BGC:1,2015-05-01T01:36:00Z,26.4040,-81.8810,10.0,2.95,302.44,4.6,'1111122,1111122,1111122' 
COMPS,ioos:station:USF.COMPS:BGC:1,2015-05-01T01:42:00Z,26.4040,-81.8810,10.0,2.6,298.21,4.7,'1111122,1111122,1111122' 
COMPS,ioos:station:USF.COMPS:BGC:1,2015-05-01T01:48:00Z,26.4040,-81.8810,10.0,2.87,306.81,4.31,'1111122,1111122,1111122' 
COMPS,ioos:station:USF.COMPS:BGC:1,2015-05-01T01:54:00Z,26.4040,-81.8810,10.0,2.95,298.57,4.21,'1111122,1111122,1111122' 
COMPS,ioos:station:USF.COMPS:BGC:1,2015-05-01T02:00:00Z,26.4040,-81.8810,10.0,3.42,314.01,5.19,'1111122,1111122,1111122' 
COMPS,ioos:station:USF.COMPS:BGC:1,2015-05-01T02:06:00Z,26.4040,-81.8810,10.0,3.42,320.59,5.78,'1111122,1111122,1111122' 
COMPS,ioos:station:USF.COMPS:BGC:1,2015-05-01T02:12:00Z,26.4040,-81.8810,10.0,3.73,317.0,5.48,'1111122,1111122,1111122' 
COMPS,ioos:station:USF.COMPS:BGC:1,2015-05-01T02:18:00Z,26.4040,-81.8810,10.0,4.13,317.6,6.07,'1111122,1111122,1111122' 
COMPS,ioos:station:USF.COMPS:BGC:1,2015-05-01T02:24:00Z,26.4040,-81.8810,10.0,4.02,318.75,6.37,'1111122,1111122,1111122' 
COMPS,ioos:station:USF.COMPS:BGC:1,2015-05-01T02:30:00Z,26.4040,-81.8810,10.0,3.69,317.05,6.17,'1111122,1111122,1111122' 
COMPS,ioos:station:USF.COMPS:BGC:1,2015-05-01T02:36:00Z,26.4040,-81.8810,10.0,4.23,317.26,5.68,'1111122,1111122,1111122' 
COMPS,ioos:station:USF.COMPS:BGC:1,2015-05-01T02:42:00Z,26.4040,-81.8810,10.0,4.17,315.02,6.27,'1111122,1111122,1111122' 
COMPS,ioos:station:USF.COMPS:BGC:1,2015-05-01T02:48:00Z,26.4040,-81.8810,10.0,3.53,316.05,5.78,'1111122,1111122,1111122' 
COMPS,ioos:station:USF.COMPS:BGC:1,2015-05-01T02:54:00Z,26.4040,-81.8810,10.0,3.12,322.28,4.7,'1111122,1111122,1111122' 
COMPS,ioos:station:USF.COMPS:BGC:1,2015-05-01T03:00:00Z,26.4040,-81.8810,10.0,3.55,323.59,4.6,'1111122,1111122,1111122' 
COMPS,ioos:station:USF.COMPS:BGC:1,2015-05-01T03:06:00Z,26.4040,-81.8810,10.0,2.81,321.46,3.72,'1111122,1111122,1111122' 
COMPS,ioos:station:USF.COMPS:BGC:1,2015-05-01T03:12:00Z,26.4040,-81.8810,10.0,2.91,331.85,3.82,'1111122,1111122,1111122' 
COMPS,ioos:station:USF.COMPS:BGC:1,2015-05-01T03:18:00Z,26.4040,-81.8810,10.0,3.3,339.76,4.8,'1111122,1111122,1111122' 
COMPS,ioos:station:USF.COMPS:BGC:1,2015-05-01T03:24:00Z,26.4040,-81.8810,10.0,3.53,339.74,4.5,'1111122,1111122,1111122' 
COMPS,ioos:station:USF.COMPS:BGC:1,2015-05-01T03:30:00Z,26.4040,-81.8810,10.0,3.22,338.22,4.41,'1111122,1111122,1111122' 
COMPS,ioos:station:USF.COMPS:BGC:1,2015-05-01T03:36:00Z,26.4040,-81.8810,10.0,3.26,343.88,3.82,'1111122,1111122,1111122' 
COMPS,ioos:station:USF.COMPS:BGC:1,2015-05-01T03:42:00Z,26.4040,-81.8810,10.0,3.23,344.94,4.5,'1111122,1111122,1111122' 
COMPS,ioos:station:USF.COMPS:BGC:1,2015-05-01T03:48:00Z,26.4040,-81.8810,10.0,3.08,340.84,4.01,'1111122,1111122,1111122' 
COMPS,ioos:station:USF.COMPS:BGC:1,2015-05-01T03:54:00Z,26.4040,-81.8810,10.0,3.61,348.93,4.31,'1111122,1111122,1111122' 
COMPS,ioos:station:USF.COMPS:BGC:1,2015-05-01T04:00:00Z,26.4040,-81.8810,10.0,3.74,343.0,4.6,'1111122,1111122,1111122' 
COMPS,ioos:station:USF.COMPS:BGC:1,2015-05-01T04:06:00Z,26.4040,-81.8810,10.0,3.64,338.11,4.41,'1111122,1111122,1111122' 
COMPS,ioos:station:USF.COMPS:BGC:1,2015-05-01T04:12:00Z,26.4040,-81.8810,10.0,3.55,341.42,4.21,'1111122,1111122,1111122' 
COMPS,ioos:station:USF.COMPS:BGC:1,2015-05-01T04:18:00Z,26.4040,-81.8810,10.0,3.48,336.06,4.21,'1111122,1111122,1111122' 
COMPS,ioos:station:USF.COMPS:BGC:1,2015-05-01T04:24:00Z,26.4040,-81.8810,10.0,3.7,330.96,4.8,'1111122,1111122,1111122' 
COMPS,ioos:station:USF.COMPS:BGC:1,2015-05-01T04:30:00Z,26.4040,-81.8810,10.0,4.28,332.88,5.19,'1111122,1111122,1111122' 
COMPS,ioos:station:USF.COMPS:BGC:1,2015-05-01T04:36:00Z,26.4040,-81.8810,10.0,4.55,334.7,6.37,'1111122,1111122,1111122' 
COMPS,ioos:station:USF.COMPS:BGC:1,2015-05-01T04:42:00Z,26.4040,-81.8810,10.0,3.8,339.68,5.19,'1111122,1111122,1111122' 
COMPS,ioos:station:USF.COMPS:BGC:1,2015-05-01T04:48:00Z,26.4040,-81.8810,10.0,4.05,339.89,5.68,'1111122,1111122,1111122' 
COMPS,ioos:station:USF.COMPS:BGC:1,2015-05-01T04:54:00Z,26.4040,-81.8810,10.0,3.63,343.96,4.5,'1111122,1111122,1111122' 
COMPS,ioos:station:USF.COMPS:BGC:1,2015-05-01T05:00:00Z,26.4040,-81.8810,10.0,3.39,345.78,4.01,'1111122,1111122,1111122' 
COMPS,ioos:station:USF.COMPS:BGC:1,2015-05-01T05:06:00Z,26.4040,-81.8810,10.0,3.28,353.25,4.21,'1111122,1111122,1111122' 
COMPS,ioos:station:USF.COMPS:BGC:1,2015-05-01T05:12:00Z,26.4040,-81.8810,10.0,3.44,352.45,4.6,'1111122,1111122,1111122' 
COMPS,ioos:station:USF.COMPS:BGC:1,2015-05-01T05:18:00Z,26.4040,-81.8810,10.0,3.68,355.96,4.21,'1111122,1111122,1111122' 
COMPS,ioos:station:USF.COMPS:BGC:1,2015-05-01T05:24:00Z,26.4040,-81.8810,10.0,3.64,356.83,4.11,'1111122,1111122,1111122' 
COMPS,ioos:station:USF.COMPS:BGC:1,2015-05-01T05:30:00Z,26.4040,-81.8810,10.0,3.85,349.39,4.8,'1111122,1111122,1111122' 
COMPS,ioos:station:USF.COMPS:BGC:1,2015-05-01T05:36:00Z,26.4040,-81.8810,10.0,3.57,353.24,4.31,'1111122,1111122,1111122' 
COMPS,ioos:station:USF.COMPS:BGC:1,2015-05-01T05:42:00Z,26.4040,-81.8810,10.0,3.66,347.51,4.6,'1111122,1111122,1111122' 
COMPS,ioos:station:USF.COMPS:BGC:1,2015-05-01T05:48:00Z,26.4040,-81.8810,10.0,3.85,348.13,4.9,'1111122,1111122,1111122' 
COMPS,ioos:station:USF.COMPS:BGC:1,2015-05-01T05:54:00Z,26.4040,-81.8810,10.0,3.95,348.53,4.9,'1111122,1111122,1111122' 
COMPS,ioos:station:USF.COMPS:BGC:1,2015-05-01T06:00:00Z,26.4040,-81.8810,10.0,3.29,348.47,3.82,'1111122,1111122,1111122' 
COMPS,ioos:station:USF.COMPS:BGC:1,2015-05-01T06:06:00Z,26.4040,-81.8810,10.0,3.23,351.36,4.01,'1111122,1111122,1111122' 
COMPS,ioos:station:USF.COMPS:BGC:1,2015-05-01T06:12:00Z,26.4040,-81.8810,10.0,3.48,355.15,4.21,'1111122,1111122,1111122' 
COMPS,ioos:station:USF.COMPS:BGC:1,2015-05-01T06:18:00Z,26.4040,-81.8810,10.0,3.67,355.27,4.5,'1111122,1111122,1111122' 
COMPS,ioos:station:USF.COMPS:BGC:1,2015-05-01T06:24:00Z,26.4040,-81.8810,10.0,3.39,350.26,4.01,'1111122,1111122,1111122' 
COMPS,ioos:station:USF.COMPS:BGC:1,2015-05-01T06:30:00Z,26.4040,-81.8810,10.0,3.25,355.72,4.41,'1111122,1111122,1111122' 
COMPS,ioos:station:USF.COMPS:BGC:1,2015-05-01T06:36:00Z,26.4040,-81.8810,10.0,2.95,352.15,3.52,'1111122,1111122,1111122' 
COMPS,ioos:station:USF.COMPS:BGC:1,2015-05-01T06:42:00Z,26.4040,-81.8810,10.0,3.28,357.08,4.01,'1111122,1111122,1111122' 
COMPS,ioos:station:USF.COMPS:BGC:1,2015-05-01T06:48:00Z,26.4040,-81.8810,10.0,3.0,350.27,4.21,'1111122,1111122,1111122' 
COMPS,ioos:station:USF.COMPS:BGC:1,2015-05-01T06:54:00Z,26.4040,-81.8810,10.0,3.59,356.0,4.31,'1111122,1111122,1111122' 
COMPS,ioos:station:USF.COMPS:BGC:1,2015-05-01T07:00:00Z,26.4040,-81.8810,10.0,3.99,357.38,4.6,'1111122,1111122,1111122' 
COMPS,ioos:station:USF.COMPS:BGC:1,2015-05-01T07:06:00Z,26.4040,-81.8810,10.0,4.29,357.31,4.99,'1111122,1111122,1111122' 
COMPS,ioos:station:USF.COMPS:BGC:1,2015-05-01T07:12:00Z,26.4040,-81.8810,10.0,4.02,353.08,4.9,'1111122,1111122,1111122' 
COMPS,ioos:station:USF.COMPS:BGC:1,2015-05-01T07:18:00Z,26.4040,-81.8810,10.0,4.68,355.9,5.48,'1111122,1111122,1111122' 
COMPS,ioos:station:USF.COMPS:BGC:1,2015-05-01T07:24:00Z,26.4040,-81.8810,10.0,4.14,350.51,5.09,'1111122,1111122,1111122' 
COMPS,ioos:station:USF.COMPS:BGC:1,2015-05-01T07:30:00Z,26.4040,-81.8810,10.0,3.71,348.81,4.8,'1111122,1111122,1111122' 
COMPS,ioos:station:USF.COMPS:BGC:1,2015-05-01T07:36:00Z,26.4040,-81.8810,10.0,3.3,346.51,4.31,'1111122,1111122,1111122' 
COMPS,ioos:station:USF.COMPS:BGC:1,2015-05-01T07:42:00Z,26.4040,-81.8810,10.0,3.65,351.39,4.41,'1111122,1111122,1111122' 
COMPS,ioos:station:USF.COMPS:BGC:1,2015-05-01T07:48:00Z,26.4040,-81.8810,10.0,3.69,349.87,5.09,'1111122,1111122,1111122' 
COMPS,ioos:station:USF.COMPS:BGC:1,2015-05-01T07:54:00Z,26.4040,-81.8810,10.0,3.75,349.4,4.5,'1111122,1111122,1111122' 
COMPS,ioos:station:USF.COMPS:BGC:1,2015-05-01T08:00:00Z,26.4040,-81.8810,10.0,3.48,353.34,4.6,'1111122,1111122,1111122' 
COMPS,ioos:station:USF.COMPS:BGC:1,2015-05-01T08:06:00Z,26.4040,-81.8810,10.0,3.59,350.66,4.41,'1111122,1111122,1111122' 
COMPS,ioos:station:USF.COMPS:BGC:1,2015-05-01T08:12:00Z,26.4040,-81.8810,10.0,3.78,356.65,4.6,'1111122,1111122,1111122' 
COMPS,ioos:station:USF.COMPS:BGC:1,2015-05-01T08:18:00Z,26.4040,-81.8810,10.0,4.36,357.9,5.29,'1111122,1111122,1111122' 
COMPS,ioos:station:USF.COMPS:BGC:1,2015-05-01T08:24:00Z,26.4040,-81.8810,10.0,4.77,357.37,5.78,'1111122,1111122,1111122' 
COMPS,ioos:station:USF.COMPS:BGC:1,2015-05-01T08:30:00Z,26.4040,-81.8810,10.0,4.4,355.06,5.58,'1111122,1111122,1111122' 
COMPS,ioos:station:USF.COMPS:BGC:1,2015-05-01T08:36:00Z,26.4040,-81.8810,10.0,3.64,352.25,4.21,'1111122,1111122,1111122' 
COMPS,ioos:station:USF.COMPS:BGC:1,2015-05-01T08:42:00Z,26.4040,-81.8810,10.0,3.52,357.54,4.31,'1111122,1111122,1111122' 
COMPS,ioos:station:USF.COMPS:BGC:1,2015-05-01T08:48:00Z,26.4040,-81.8810,10.0,3.87,9.43,4.9,'1111122,1111122,1111122' 
COMPS,ioos:station:USF.COMPS:BGC:1,2015-05-01T08:54:00Z,26.4040,-81.8810,10.0,2.86,25.74,3.62,'1111122,1111122,1111122' 
COMPS,ioos:station:USF.COMPS:BGC:1,2015-05-01T09:00:00Z,26.4040,-81.8810,10.0,2.76,36.13,3.62,'1111122,1111122,1111122' 
COMPS,ioos:station:USF.COMPS:BGC:1,2015-05-01T09:06:00Z,26.4040,-81.8810,10.0,2.39,32.14,3.13,'1111122,1111122,1111122' 
COMPS,ioos:station:USF.COMPS:BGC:1,2015-05-01T09:12:00Z,26.4040,-81.8810,10.0,2.76,27.67,3.23,'1111122,1111122,1111122' 
COMPS,ioos:station:USF.COMPS:BGC:1,2015-05-01T09:18:00Z,26.4040,-81.8810,10.0,2.42,31.75,2.84,'1111122,1111122,1111122' 
COMPS,ioos:station:USF.COMPS:BGC:1,2015-05-01T09:24:00Z,26.4040,-81.8810,10.0,2.67,32.84,3.13,'1111122,1111122,1111122' 
COMPS,ioos:station:USF.COMPS:BGC:1,2015-05-01T09:30:00Z,26.4040,-81.8810,10.0,2.76,31.58,3.52,'1111122,1111122,1111122' 
COMPS,ioos:station:USF.COMPS:BGC:1,2015-05-01T09:36:00Z,26.4040,-81.8810,10.0,2.53,31.95,3.23,'1111122,1111122,1111122' 
COMPS,ioos:station:USF.COMPS:BGC:1,2015-05-01T09:42:00Z,26.4040,-81.8810,10.0,2.91,26.8,3.92,'1111122,1111122,1111122' 
COMPS,ioos:station:USF.COMPS:BGC:1,2015-05-01T09:48:00Z,26.4040,-81.8810,10.0,3.11,25.39,4.41,'1111122,1111122,1111122' 
COMPS,ioos:station:USF.COMPS:BGC:1,2015-05-01T09:54:00Z,26.4040,-81.8810,10.0,2.5,33.76,3.33,'1111122,1111122,1111122' 
COMPS,ioos:station:USF.COMPS:BGC:1,2015-05-01T10:00:00Z,26.4040,-81.8810,10.0,2.65,33.18,3.43,'1111122,1111122,1111122' 
COMPS,ioos:station:USF.COMPS:BGC:1,2015-05-01T10:06:00Z,26.4040,-81.8810,10.0,2.66,44.2,3.52,'1111122,1111122,1111122' 
COMPS,ioos:station:USF.COMPS:BGC:1,2015-05-01T10:12:00Z,26.4040,-81.8810,10.0,3.21,36.22,3.62,'1111122,1111122,1111122' 
COMPS,ioos:station:USF.COMPS:BGC:1,2015-05-01T10:18:00Z,26.4040,-81.8810,10.0,3.04,29.0,3.62,'1111122,1111122,1111122' 
COMPS,ioos:station:USF.COMPS:BGC:1,2015-05-01T10:24:00Z,26.4040,-81.8810,10.0,2.52,31.33,3.33,'1111122,1111122,1111122' 
COMPS,ioos:station:USF.COMPS:BGC:1,2015-05-01T10:30:00Z,26.4040,-81.8810,10.0,2.36,28.34,3.03,'1111122,1111122,1111122' 
COMPS,ioos:station:USF.COMPS:BGC:1,2015-05-01T10:36:00Z,26.4040,-81.8810,10.0,2.42,25.4,2.94,'1111122,1111122,1111122' 
COMPS,ioos:station:USF.COMPS:BGC:1,2015-05-01T10:42:00Z,26.4040,-81.8810,10.0,2.07,26.46,2.84,'1111122,1111122,1111122' 
COMPS,ioos:station:USF.COMPS:BGC:1,2015-05-01T10:48:00Z,26.4040,-81.8810,10.0,2.43,36.38,3.13,'1111122,1111122,1111122' 
COMPS,ioos:station:USF.COMPS:BGC:1,2015-05-01T10:54:00Z,26.4040,-81.8810,10.0,2.46,32.05,2.84,'1111122,1111122,1111122' 
COMPS,ioos:station:USF.COMPS:BGC:1,2015-05-01T11:00:00Z,26.4040,-81.8810,10.0,2.27,34.41,2.64,'1111122,1111122,1111122' 
COMPS,ioos:station:USF.COMPS:BGC:1,2015-05-01T11:06:00Z,26.4040,-81.8810,10.0,2.16,33.87,2.64,'1111122,1111122,1111122' 
COMPS,ioos:station:USF.COMPS:BGC:1,2015-05-01T11:12:00Z,26.4040,-81.8810,10.0,2.22,37.06,2.64,'1111122,1111122,1111122' 
COMPS,ioos:station:USF.COMPS:BGC:1,2015-05-01T11:18:00Z,26.4040,-81.8810,10.0,2.11,41.83,2.64,'1111122,1111122,1111122' 
COMPS,ioos:station:USF.COMPS:BGC:1,2015-05-01T11:24:00Z,26.4040,-81.8810,10.0,2.04,37.8,2.54,'1111122,1111122,1111122' 
COMPS,ioos:station:USF.COMPS:BGC:1,2015-05-01T11:30:00Z,26.4040,-81.8810,10.0,1.88,34.94,2.45,'1111122,1111122,1111122' 
COMPS,ioos:station:USF.COMPS:BGC:1,2015-05-01T11:36:00Z,26.4040,-81.8810,10.0,2.03,41.58,2.35,'1111122,1111122,1111122' 
COMPS,ioos:station:USF.COMPS:BGC:1,2015-05-01T11:42:00Z,26.4040,-81.8810,10.0,1.75,37.98,2.54,'1111122,1111122,1111122' 
COMPS,ioos:station:USF.COMPS:BGC:1,2015-05-01T11:48:00Z,26.4040,-81.8810,10.0,1.84,31.79,2.35,'1111122,1111122,1111122' 
COMPS,ioos:station:USF.COMPS:BGC:1,2015-05-01T11:54:00Z,26.4040,-81.8810,10.0,1.82,31.57,2.25,'1111122,1111122,1111122' 
COMPS,ioos:station:USF.COMPS:BGC:1,2015-05-01T12:00:00Z,26.4040,-81.8810,10.0,2.06,33.9,2.45,'1111122,1111122,1111122' 
COMPS,ioos:station:USF.COMPS:BGC:1,2015-05-01T12:06:00Z,26.4040,-81.8810,10.0,1.92,34.91,2.45,'1111122,1111122,1111122' 
COMPS,ioos:station:USF.COMPS:BGC:1,2015-05-01T12:12:00Z,26.4040,-81.8810,10.0,1.71,26.04,2.15,'1111122,1111122,1111122' 
COMPS,ioos:station:USF.COMPS:BGC:1,2015-05-01T12:18:00Z,26.4040,-81.8810,10.0,2.1,19.34,3.03,'1111122,1111122,1111122' 
COMPS,ioos:station:USF.COMPS:BGC:1,2015-05-01T12:24:00Z,26.4040,-81.8810,10.0,2.58,15.62,3.23,'1111122,1111122,1111122' 
COMPS,ioos:station:USF.COMPS:BGC:1,2015-05-01T12:30:00Z,26.4040,-81.8810,10.0,2.53,18.06,3.03,'1111122,1111122,1111122' 
COMPS,ioos:station:USF.COMPS:BGC:1,2015-05-01T12:36:00Z,26.4040,-81.8810,10.0,2.68,23.61,3.43,'1111122,1111122,1111122' 
COMPS,ioos:station:USF.COMPS:BGC:1,2015-05-01T12:42:00Z,26.4040,-81.8810,10.0,2.52,21.91,3.13,'1111122,1111122,1111122' 
COMPS,ioos:station:USF.COMPS:BGC:1,2015-05-01T12:48:00Z,26.4040,-81.8810,10.0,2.86,25.27,3.52,'1111122,1111122,1111122' 
COMPS,ioos:station:USF.COMPS:BGC:1,2015-05-01T12:54:00Z,26.4040,-81.8810,10.0,3.09,16.58,3.92,'1111122,1111122,1111122' 
COMPS,ioos:station:USF.COMPS:BGC:1,2015-05-01T13:00:00Z,26.4040,-81.8810,10.0,2.74,26.82,3.72,'1111122,1111122,1111122' 
COMPS,ioos:station:USF.COMPS:BGC:1,2015-05-01T13:06:00Z,26.4040,-81.8810,10.0,3.16,9.74,4.8,'1111122,1111122,1111122' 
COMPS,ioos:station:USF.COMPS:BGC:1,2015-05-01T13:12:00Z,26.4040,-81.8810,10.0,3.39,10.04,4.6,'1111122,1111122,1111122' 
COMPS,ioos:station:USF.COMPS:BGC:1,2015-05-01T13:18:00Z,26.4040,-81.8810,10.0,3.59,4.85,4.6,'1111122,1111122,1111122' 
COMPS,ioos:station:USF.COMPS:BGC:1,2015-05-01T13:24:00Z,26.4040,-81.8810,10.0,3.74,6.93,4.6,'1111122,1111122,1111122' 
COMPS,ioos:station:USF.COMPS:BGC:1,2015-05-01T13:30:00Z,26.4040,-81.8810,10.0,3.28,1.6,4.31,'1111122,1111122,1111122' 
COMPS,ioos:station:USF.COMPS:BGC:1,2015-05-01T13:36:00Z,26.4040,-81.8810,10.0,3.41,7.78,4.99,'1111122,1111122,1111122' 
COMPS,ioos:station:USF.COMPS:BGC:1,2015-05-01T13:42:00Z,26.4040,-81.8810,10.0,3.83,4.32,5.39,'1111122,1111122,1111122' 
COMPS,ioos:station:USF.COMPS:BGC:1,2015-05-01T13:48:00Z,26.4040,-81.8810,10.0,3.91,11.73,5.48,'1111122,1111122,1111122' 
COMPS,ioos:station:USF.COMPS:BGC:1,2015-05-01T13:54:00Z,26.4040,-81.8810,10.0,4.04,6.2,4.99,'1111122,1111122,1111122' 
COMPS,ioos:station:USF.COMPS:BGC:1,2015-05-01T14:00:00Z,26.4040,-81.8810,10.0,3.51,355.27,4.99,'1111122,1111122,1111122' 
COMPS,ioos:station:USF.COMPS:BGC:1,2015-05-01T14:06:00Z,26.4040,-81.8810,10.0,3.25,353.91,4.41,'1111122,1111122,1111122' 
COMPS,ioos:station:USF.COMPS:BGC:1,2015-05-01T14:12:00Z,26.4040,-81.8810,10.0,3.71,335.38,5.48,'1111122,1111122,1111122' 
COMPS,ioos:station:USF.COMPS:BGC:1,2015-05-01T14:18:00Z,26.4040,-81.8810,10.0,3.03,333.9,3.72,'1111122,1111122,1111122' 
COMPS,ioos:station:USF.COMPS:BGC:1,2015-05-01T14:24:00Z,26.4040,-81.8810,10.0,3.5,338.43,5.19,'1111122,1111122,1111122' 
COMPS,ioos:station:USF.COMPS:BGC:1,2015-05-01T14:30:00Z,26.4040,-81.8810,10.0,4.53,333.9,6.17,'1111122,1111122,1111122' 
COMPS,ioos:station:USF.COMPS:BGC:1,2015-05-01T14:36:00Z,26.4040,-81.8810,10.0,4.33,331.26,6.27,'1111122,1111122,1111122' 
COMPS,ioos:station:USF.COMPS:BGC:1,2015-05-01T14:42:00Z,26.4040,-81.8810,10.0,2.31,303.79,4.5,'1111122,1111122,1111122' 
COMPS,ioos:station:USF.COMPS:BGC:1,2015-05-01T14:48:00Z,26.4040,-81.8810,10.0,3.08,288.23,5.58,'1111122,1111122,1111122' 
COMPS,ioos:station:USF.COMPS:BGC:1,2015-05-01T14:54:00Z,26.4040,-81.8810,10.0,4.15,285.08,6.07,'1111122,1111122,1111122' 
COMPS,ioos:station:USF.COMPS:BGC:1,2015-05-01T15:00:00Z,26.4040,-81.8810,10.0,3.11,275.4,5.78,'1111122,1111122,1111122' 
COMPS,ioos:station:USF.COMPS:BGC:1,2015-05-01T15:06:00Z,26.4040,-81.8810,10.0,3.66,282.66,6.07,'1111122,1111122,1111122' 
COMPS,ioos:station:USF.COMPS:BGC:1,2015-05-01T15:12:00Z,26.4040,-81.8810,10.0,3.91,285.68,5.48,'1111122,1111122,1111122' 
COMPS,ioos:station:USF.COMPS:BGC:1,2015-05-01T15:18:00Z,26.4040,-81.8810,10.0,4.06,282.56,6.76,'1111122,1111122,1111122' 
COMPS,ioos:station:USF.COMPS:BGC:1,2015-05-01T15:24:00Z,26.4040,-81.8810,10.0,3.3,272.59,4.99,'1111122,1111122,1111122' 
COMPS,ioos:station:USF.COMPS:BGC:1,2015-05-01T15:30:00Z,26.4040,-81.8810,10.0,4.37,274.12,6.27,'1111122,1111122,1111122' 
COMPS,ioos:station:USF.COMPS:BGC:1,2015-05-01T15:36:00Z,26.4040,-81.8810,10.0,3.81,270.27,5.68,'1111122,1111122,1111122' 
COMPS,ioos:station:USF.COMPS:BGC:1,2015-05-01T15:42:00Z,26.4040,-81.8810,10.0,3.34,277.92,5.97,'1111122,1111122,1111122' 
COMPS,ioos:station:USF.COMPS:BGC:1,2015-05-01T15:48:00Z,26.4040,-81.8810,10.0,3.88,275.55,6.17,'1111122,1111122,1111122' 
COMPS,ioos:station:USF.COMPS:BGC:1,2015-05-01T15:54:00Z,26.4040,-81.8810,10.0,4.37,282.2,6.86,'1111122,1111122,1111122' 
COMPS,ioos:station:USF.COMPS:BGC:1,2015-05-01T16:00:00Z,26.4040,-81.8810,10.0,4.46,285.8,6.56,'1111122,1111122,1111122' 
COMPS,ioos:station:USF.COMPS:BGC:1,2015-05-01T16:06:00Z,26.4040,-81.8810,10.0,4.48,275.01,6.66,'1111122,1111122,1111122' 
COMPS,ioos:station:USF.COMPS:BGC:1,2015-05-01T16:12:00Z,26.4040,-81.8810,10.0,4.63,273.4,6.66,'1111122,1111122,1111122' 
COMPS,ioos:station:USF.COMPS:BGC:1,2015-05-01T16:18:00Z,26.4040,-81.8810,10.0,4.41,263.14,7.15,'1111122,1111122,1111122' 
COMPS,ioos:station:USF.COMPS:BGC:1,2015-05-01T16:24:00Z,26.4040,-81.8810,10.0,4.55,258.81,6.56,'1111122,1111122,1111122' 
COMPS,ioos:station:USF.COMPS:BGC:1,2015-05-01T16:30:00Z,26.4040,-81.8810,10.0,4.07,267.61,5.97,'1111122,1111122,1111122' 
COMPS,ioos:station:USF.COMPS:BGC:1,2015-05-01T16:36:00Z,26.4040,-81.8810,10.0,4.33,262.56,6.66,'1111122,1111122,1111122' 
COMPS,ioos:station:USF.COMPS:BGC:1,2015-05-01T16:42:00Z,26.4040,-81.8810,10.0,5.25,276.2,7.25,'1111122,1111122,1111122' 
COMPS,ioos:station:USF.COMPS:BGC:1,2015-05-01T16:48:00Z,26.4040,-81.8810,10.0,4.07,272.92,6.46,'1111122,1111122,1111122' 
COMPS,ioos:station:USF.COMPS:BGC:1,2015-05-01T16:54:00Z,26.4040,-81.8810,10.0,5.4,252.94,7.35,'1111122,1111122,1111122' 
COMPS,ioos:station:USF.COMPS:BGC:1,2015-05-01T17:00:00Z,26.4040,-81.8810,10.0,4.41,260.53,5.97,'1111122,1111122,1111122' 
COMPS,ioos:station:USF.COMPS:BGC:1,2015-05-01T17:06:00Z,26.4040,-81.8810,10.0,4.49,260.85,6.27,'1111122,1111122,1111122' 
COMPS,ioos:station:USF.COMPS:BGC:1,2015-05-01T17:12:00Z,26.4040,-81.8810,10.0,4.48,260.62,6.07,'1111122,1111122,1111122' 
COMPS,ioos:station:USF.COMPS:BGC:1,2015-05-01T17:18:00Z,26.4040,-81.8810,10.0,4.31,269.98,6.37,'1111122,1111122,1111122' 
COMPS,ioos:station:USF.COMPS:BGC:1,2015-05-01T17:24:00Z,26.4040,-81.8810,10.0,5.09,274.82,7.44,'1111122,1111122,1111122' 
COMPS,ioos:station:USF.COMPS:BGC:1,2015-05-01T17:30:00Z,26.4040,-81.8810,10.0,4.51,275.15,7.25,'1111122,1111122,1111122' 
COMPS,ioos:station:USF.COMPS:BGC:1,2015-05-01T17:36:00Z,26.4040,-81.8810,10.0,4.32,276.06,6.76,'1111122,1111122,1111122' 
COMPS,ioos:station:USF.COMPS:BGC:1,2015-05-01T17:42:00Z,26.4040,-81.8810,10.0,4.66,280.75,7.64,'1111122,1111122,1111122' 
COMPS,ioos:station:USF.COMPS:BGC:1,2015-05-01T17:48:00Z,26.4040,-81.8810,10.0,5.02,277.66,7.93,'1111122,1111122,1111122' 
COMPS,ioos:station:USF.COMPS:BGC:1,2015-05-01T17:54:00Z,26.4040,-81.8810,10.0,6.08,288.29,7.84,'1111122,1111122,1111122' 
COMPS,ioos:station:USF.COMPS:BGC:1,2015-05-01T18:00:00Z,26.4040,-81.8810,10.0,4.58,281.29,6.86,'1111122,1111122,1111122' 
COMPS,ioos:station:USF.COMPS:BGC:1,2015-05-01T18:06:00Z,26.4040,-81.8810,10.0,4.23,275.64,6.86,'1111122,1111122,1111122' 
COMPS,ioos:station:USF.COMPS:BGC:1,2015-05-01T18:12:00Z,26.4040,-81.8810,10.0,4.65,271.76,6.95,'1111122,1111122,1111122' 
COMPS,ioos:station:USF.COMPS:BGC:1,2015-05-01T18:18:00Z,26.4040,-81.8810,10.0,4.85,276.29,7.05,'1111122,1111122,1111122' 
COMPS,ioos:station:USF.COMPS:BGC:1,2015-05-01T18:24:00Z,26.4040,-81.8810,10.0,4.25,269.89,6.46,'1111122,1111122,1111122' 
COMPS,ioos:station:USF.COMPS:BGC:1,2015-05-01T18:30:00Z,26.4040,-81.8810,10.0,4.67,268.69,7.54,'1111122,1111122,1111122' 
COMPS,ioos:station:USF.COMPS:BGC:1,2015-05-01T18:36:00Z,26.4040,-81.8810,10.0,4.6,275.5,7.74,'1111122,1111122,1111122' 
COMPS,ioos:station:USF.COMPS:BGC:1,2015-05-01T18:42:00Z,26.4040,-81.8810,10.0,5.12,280.68,8.42,'1111122,1111122,1111122' 
COMPS,ioos:station:USF.COMPS:BGC:1,2015-05-01T18:48:00Z,26.4040,-81.8810,10.0,5.43,284.07,7.25,'1111122,1111122,1111122' 
COMPS,ioos:station:USF.COMPS:BGC:1,2015-05-01T18:54:00Z,26.4040,-81.8810,10.0,4.66,268.5,7.44,'1111122,1111122,1111122' 
COMPS,ioos:station:USF.COMPS:BGC:1,2015-05-01T19:00:00Z,26.4040,-81.8810,10.0,5.84,288.21,8.23,'1111122,1111122,1111122' 
COMPS,ioos:station:USF.COMPS:BGC:1,2015-05-01T19:06:00Z,26.4040,-81.8810,10.0,4.11,270.97,6.07,'1111122,1111122,1111122' 
COMPS,ioos:station:USF.COMPS:BGC:1,2015-05-01T19:12:00Z,26.4040,-81.8810,10.0,4.68,271.35,8.03,'1111122,1111122,1111122' 
COMPS,ioos:station:USF.COMPS:BGC:1,2015-05-01T19:18:00Z,26.4040,-81.8810,10.0,4.83,281.04,7.84,'1111122,1111122,1111122' 
COMPS,ioos:station:USF.COMPS:BGC:1,2015-05-01T19:24:00Z,26.4040,-81.8810,10.0,4.88,275.79,6.76,'1111122,1111122,1111122' 
COMPS,ioos:station:USF.COMPS:BGC:1,2015-05-01T19:30:00Z,26.4040,-81.8810,10.0,5.27,274.62,6.95,'1111122,1111122,1111122' 